EW6780 Weather Reports


time (UTC)temp
C
wind
direction
speed
KPH
gust
KPH
rain 1hr
cm
rain 24hr
cm
rain mn
cm
humidity
%
barometer
mb
20260504195007 23 253 0.0 14.5 0.00 0.05 0.00 32 1009.4
20260504194504 22 151 0.0 3.2 0.00 0.05 0.00 34 1009.3
20260504194005 22 190 4.8 9.7 0.00 0.05 0.00 33 1009.4
20260504193514 22 271 3.2 16.1 0.00 0.05 0.00 33 1009.5
20260504193004 22 29 4.8 11.3 0.00 0.05 0.00 33 1009.5
20260504192504 22 288 4.8 8.0 0.00 0.05 0.00 34 1009.6
20260504192011 22 279 0.0 9.7 0.00 0.05 0.00 33 1009.6
20260504191510 22 276 9.7 9.7 0.00 0.05 0.00 33 1009.7
20260504191013 22 293 6.4 6.4 0.00 0.05 0.00 34 1009.8
20260504190505 22 182 1.6 12.9 0.00 0.05 0.00 34 1009.9
20260504190008 22 130 0.0 9.7 0.00 0.05 0.00 33 1009.9
20260504185505 22 249 1.6 8.0 0.00 0.05 0.00 33 1009.9
20260504185004 22 291 4.8 12.9 0.00 0.05 0.00 33 1010.1
20260504184504 22 245 1.6 11.3 0.00 0.05 0.00 34 1010.1
20260504184008 22 291 3.2 9.7 0.00 0.05 0.00 34 1010.1
20260504183504 22 234 4.8 14.5 0.00 0.05 0.00 33 1010.2
20260504183004 22 293 1.6 11.3 0.00 0.05 0.00 34 1010.3
20260504182513 22 293 0.0 14.5 0.00 0.05 0.00 34 1010.3
20260504182004 22 314 0.0 9.7 0.00 0.05 0.00 34 1010.5
20260504181504 22 201 0.0 17.7 0.00 0.05 0.00 34 1010.4
20260504181004 22 179 1.6 4.8 0.00 0.05 0.00 34 1010.6
20260504180507 21 291 0.0 17.7 0.00 0.05 0.00 34 1010.7
20260504180004 21 87 1.6 14.5 0.00 0.05 0.00 35 1010.8
20260504175507 21 164 0.0 12.9 0.00 0.05 0.00 35 1010.7
20260504175004 21 267 3.2 14.5 0.00 0.05 0.00 35 1010.9
20260504174504 21 299 1.6 8.0 0.00 0.05 0.00 34 1011.0
20260504174004 21 304 8.0 17.7 0.00 0.05 0.00 34 1011.0
20260504173511 21 237 1.6 8.0 0.00 0.05 0.00 37 1011.0
20260504173004 21 280 1.6 12.9 0.00 0.05 0.00 35 1011.1
20260504172508 21 108 1.6 9.7 0.00 0.05 0.00 36 1011.0
20260504172007 21 229 3.2 16.1 0.00 0.05 0.00 36 1011.1
20260504171507 21 205 1.6 11.3 0.00 0.05 0.00 35 1011.2
20260504171004 20 277 0.0 11.3 0.00 0.05 0.00 36 1011.3
20260504170510 20 201 1.6 12.9 0.00 0.05 0.00 36 1011.4
20260504151004 18 293 0.0 8.0 0.00 0.03 0.00 39 1012.7
20260504150504 18 280 1.6 4.8 0.00 0.03 0.00 42 1012.6
20260504141007 17 288 1.6 11.3 0.00 0.03 0.00 47 1012.9
20260504140504 17 286 1.6 8.0 0.00 0.03 0.00 47 1013.0
20260504130505 13 229 0.0 9.7 0.00 0.03 0.00 58 1013.7
20260504110504 8 291 4.8 4.8 0.00 0.03 0.00 66 1014.2
20260504100504 7 301 0.0 4.8 0.00 0.03 0.00 61 1014.1
20260504082007 8 268 0.0 4.8 0.00 0.03 0.00 59 1013.6
20260504081508 8 207 0.0 0.0 0.00 0.03 0.00 59 1013.6
20260504081007 8 207 0.0 0.0 0.00 0.03 0.00 58 1013.6
20260504080507 8 206 0.0 1.6 0.00 0.03 0.00 58 1013.5
20260504070105 9 279 0.0 3.2 0.00 0.03 0.00 55 1013.4
20260504050610 9 286 0.0 4.8 0.00 0.03 0.00 54 1013.1
20260504050107 9 266 1.6 3.2 0.00 0.03 0.00 54 1013.0
20260504045608 9 203 0.0 0.0 0.00 0.03 0.00 53 1013.0
20260504045105 10 194 0.0 0.0 0.00 0.03 0.00 53 1013.0
20260504044614 10 194 0.0 4.8 0.00 0.03 0.00 53 1013.0
20260504044107 10 239 0.0 3.2 0.00 0.03 0.00 53 1013.0
20260504043604 10 268 0.0 3.2 0.00 0.03 0.00 52 1013.0
20260504043107 10 268 0.0 3.2 0.00 0.03 0.00 52 1013.0
20260504042607 10 277 0.0 0.0 0.00 0.03 0.00 52 1012.9
20260504042107 10 277 0.0 0.0 0.00 0.03 0.00 52 1012.8
20260504041607 10 277 0.0 1.6 0.00 0.03 0.00 51 1012.7
20260504041113 10 277 0.0 1.6 0.00 0.03 0.00 51 1012.8
20260504040613 10 279 0.0 3.2 0.00 0.03 0.00 51 1012.7
20260504040104 10 279 0.0 1.6 0.00 0.03 0.00 51 1012.7
20260504035610 10 262 0.0 1.6 0.00 0.03 0.00 50 1012.6
20260504035107 10 262 0.0 3.2 0.00 0.03 0.00 50 1012.7
20260504034605 10 252 0.0 1.6 0.00 0.03 0.00 50 1012.6
20260504034104 10 244 0.0 0.0 0.00 0.03 0.00 49 1012.6
20260504033607 10 244 0.0 0.0 0.00 0.03 0.00 49 1012.6
20260504033104 10 242 0.0 3.2 0.00 0.03 0.00 49 1012.6
20260504032604 10 240 0.0 1.6 0.00 0.03 0.00 49 1012.5
20260504032110 10 286 0.0 4.8 0.00 0.03 0.00 49 1012.4
20260504031605 10 293 0.0 3.2 0.00 0.03 0.00 48 1012.4
20260504031113 10 274 0.0 0.0 0.00 0.03 0.00 48 1012.4
20260504030604 10 274 0.0 3.2 0.00 0.03 0.00 48 1012.4
20260504030107 10 293 0.0 0.0 0.00 0.03 0.00 48 1012.4
20260504025604 10 293 0.0 0.0 0.00 0.03 0.00 48 1012.4
20260504025104 11 293 0.0 0.0 0.00 0.03 0.00 47 1012.4
20260504024604 11 293 0.0 0.0 0.00 0.03 0.00 47 1012.4
20260504024107 11 293 0.0 0.0 0.00 0.03 0.00 46 1012.5
20260504023607 11 293 0.0 0.0 0.00 0.03 0.00 46 1012.4
20260504023107 11 293 0.0 0.0 0.00 0.03 0.00 46 1012.4
20260504022604 11 293 0.0 0.0 0.00 0.03 0.00 46 1012.4
20260504022107 11 293 0.0 0.0 0.00 0.03 0.00 45 1012.4
20260504021605 11 293 0.0 0.0 0.00 0.03 0.00 45 1012.4
20260504021110 11 293 0.0 0.0 0.03 0.03 0.00 44 1012.4
20260504020604 11 293 0.0 1.6 0.03 0.03 0.00 44 1012.4
20260504020104 11 295 0.0 0.0 0.03 0.03 0.00 44 1012.4
20260504015608 11 295 0.0 0.0 0.03 0.03 0.00 44 1012.4
20260504015107 11 295 0.0 0.0 0.03 0.03 0.00 44 1012.4
20260504014607 11 295 0.0 0.0 0.03 0.03 0.00 43 1012.3
20260504014108 11 295 0.0 0.0 0.03 0.03 0.00 43 1012.3
20260504013604 11 295 0.0 0.0 0.03 0.03 0.00 43 1012.2
20260504013104 11 295 0.0 0.0 0.03 0.03 0.00 43 1012.1
20260504012611 11 295 0.0 0.0 0.03 0.03 0.00 43 1012.0
20260504012110 12 295 0.0 0.0 0.03 0.03 0.00 43 1012.0
20260504011607 12 295 0.0 0.0 0.03 0.03 0.00 42 1012.0
20260504011104 12 295 0.0 0.0 0.00 0.00 0.00 43 1011.9
20260504010604 12 295 0.0 0.0 0.00 0.00 0.00 41 1011.9
20260504010105 12 295 0.0 0.0 0.00 0.00 0.00 41 1011.9
20260504005607 12 295 0.0 0.0 0.00 0.00 0.00 40 1011.8
20260504005107 12 295 0.0 0.0 0.00 0.00 0.00 40 1011.7
20260504004604 12 295 0.0 0.0 0.00 0.00 0.00 39 1011.6
20260504004110 12 295 0.0 0.0 0.00 0.00 0.00 38 1011.6
20260504003605 13 295 0.0 0.0 0.00 0.00 0.00 38 1011.6
20260504003110 13 295 0.0 0.0 0.00 0.00 0.00 38 1011.5
20260504002607 13 295 0.0 0.0 0.00 0.00 0.00 37 1011.4
20260504002107 13 295 0.0 0.0 0.00 0.00 0.00 37 1011.3
20260504001610 13 295 0.0 0.0 0.00 0.00 0.00 36 1011.2
20260504001104 13 295 0.0 0.0 0.00 0.00 0.00 36 1011.1
20260504000610 13 295 0.0 0.0 0.00 0.00 0.00 35 1011.0
20260504000108 14 295 0.0 0.0 0.00 0.00 0.00 35 1011.0
20260503235604 14 295 0.0 0.0 0.00 0.00 0.00 34 1011.0
20260503235104 14 295 0.0 0.0 0.00 0.00 0.00 33 1010.9
20260503234610 15 295 0.0 1.6 0.00 0.00 0.00 33 1010.9
20260503234104 15 284 0.0 1.6 0.00 0.00 0.00 33 1010.8
20260503233604 15 281 0.0 0.0 0.00 0.00 0.00 32 1010.8
20260503233105 15 202 0.0 3.2 0.00 0.00 0.00 32 1010.7
20260503232607 15 293 0.0 3.2 0.00 0.00 0.00 31 1010.7
20260503232110 15 283 0.0 3.2 0.00 0.00 0.00 31 1010.7
20260503231610 15 288 0.0 8.0 0.00 0.00 0.00 30 1010.6
20260503231105 15 291 0.0 6.4 0.00 0.00 0.00 30 1010.6
20260503230607 15 306 3.2 3.2 0.00 0.00 0.00 29 1010.5
20260503230110 15 292 0.0 4.8 0.00 0.00 0.00 30 1010.4
20260503225604 15 319 1.6 17.7 0.00 0.00 0.00 29 1010.4
20260503225107 15 323 4.8 8.0 0.00 0.00 0.00 29 1010.4
20260503224607 15 297 4.8 6.4 0.00 0.00 0.00 29 1010.3
20260503224110 15 266 0.0 6.4 0.00 0.00 0.00 29 1010.4
20260503223610 15 273 0.0 9.7 0.00 0.00 0.00 30 1010.4
20260503223104 16 281 3.2 11.3 0.00 0.00 0.00 28 1010.4
20260503222604 16 259 1.6 11.3 0.00 0.00 0.00 29 1010.3
20260503222110 16 307 3.2 16.1 0.00 0.00 0.00 29 1010.3
20260503221604 16 304 8.0 12.9 0.00 0.00 0.00 28 1010.2
20260503221104 16 281 8.0 8.0 0.00 0.00 0.00 29 1010.3
20260503220605 16 294 0.0 14.5 0.00 0.00 0.00 28 1010.2
20260503220107 16 306 3.2 12.9 0.00 0.00 0.00 28 1010.3
20260503215606 15 274 0.0 16.1 0.00 0.00 0.00 28 1010.3
20260503215104 15 280 3.2 9.7 0.00 0.00 0.00 29 1010.3
20260503214608 15 283 0.0 14.5 0.00 0.00 0.00 28 1010.3
20260503214105 15 304 3.2 14.5 0.00 0.00 0.00 29 1010.3
20260503213613 15 307 1.6 9.7 0.00 0.00 0.00 28 1010.3
20260503213103 15 268 0.0 27.4 0.00 0.00 0.00 28 1010.3
20260503212607 15 297 11.3 14.5 0.00 0.00 0.00 29 1010.3
20260503212105 15 288 3.2 17.7 0.00 0.00 0.00 29 1010.3
20260503211613 15 306 4.8 16.1 0.00 0.00 0.00 29 1010.3
20260503211113 15 270 12.9 16.1 0.00 0.00 0.00 29 1010.2
20260503210604 15 304 4.8 11.3 0.00 0.00 0.00 29 1010.2
20260503210110 15 287 0.0 11.3 0.00 0.00 0.00 29 1010.3
20260503205604 15 310 0.0 16.1 0.00 0.00 0.00 29 1010.2
20260503205107 15 299 6.4 14.5 0.00 0.00 0.00 29 1010.1
20260503204604 15 313 1.6 25.7 0.00 0.00 0.00 30 1010.2
20260503204103 15 296 8.0 25.7 0.00 0.00 0.00 30 1010.3
20260503203604 15 291 3.2 11.3 0.00 0.00 0.00 29 1010.2
20260503203105 15 294 0.0 8.0 0.00 0.00 0.00 29 1010.2
20260503202604 15 305 1.6 17.7 0.00 0.00 0.00 30 1010.3
20260503202107 15 283 4.8 11.3 0.00 0.00 0.00 30 1010.3
20260503201606 15 299 4.8 16.1 0.00 0.00 0.00 31 1010.4
20260503201104 15 281 6.4 9.7 0.00 0.00 0.00 31 1010.4
20260503200607 15 299 14.5 16.1 0.00 0.00 0.00 30 1010.5
20260503200113 15 312 0.0 12.9 0.00 0.00 0.00 31 1010.4
20260503195604 15 279 0.0 24.1 0.00 0.00 0.00 31 1010.7
20260503195107 15 306 14.5 24.1 0.00 0.00 0.00 31 1010.6